{"data":{"norad_id":62876,"epoch":"2026-05-25T00:45:06.816096Z","epoch_age_seconds":68187,"freshness":"FRESH","line1":"1 62876U 25023A   26145.03132889 -.00000236  00000+0  00000+0 0  9993","line2":"2 62876   0.0152 313.5127 0002343 112.0892 278.8207  1.00271260  4711","mean_motion":1.0027126,"eccentricity":0.0002343,"inclination_deg":0.0152,"raan_deg":313.5127,"arg_perigee_deg":112.0892,"mean_anomaly_deg":278.8207,"bstar":0,"rev_number":471,"period_min":1436.1044231418,"perigee_km":35776.862907209,"apogee_km":35796.621369573,"semimajor_km":42164.879138391,"source":"CELESTRAK","updated_at":"2026-05-25T13:38:24.345292Z"}}